Погода в Летней Ставке

Россия / Ставропольский край     45°25′34″N   43°26′36″E
темп.,
°C
ветер,
м/с
пор.,
м/с
влажн.,
%
обл.,
%
осадки,
мм/ч
давл.,
гПа
погр.,
м
19 апреля, пн
пн1900:00+12ююв3790100 0.1 1016142
03:00+12ю3693100 0.3 1015179
06:00+12ю3791100 0.3 1015205
09:00+13ююз4993100 3.2 1016416
12:00+17ююз3478100 0.6 1014498
15:00+16юз1189100 4.0 101421
18:00+14ссв1198100 4.2 101515
21:00+14ю3396100 4.5 101560
20 апреля, вт
вт2000:00+14ююв3693100 0.2 1014139
03:00+13юв61389100 0.2 1011349
06:00+11юв61576100 0.0 1010412
09:00+15юв91666100 0.0 1008603
12:00+18юв101460100 0.1 1006653
15:00+21ююв6860100 0.6 1006863
18:00+19зюз2274100 0.6 100829
21:00+16зсз61183100 2.3 1011554
21 апреля, ср
ср2100:00+13зсз41076100 1.1 1013509
03:00+11з51184100 1.1 1016727
06:00+10зюз3691100 1.5 1017528
09:00+10зсз3584100 2.8 1018450
12:00+11зсз5778100 0.0 1019596
15:00+11зсз3580100 0.0 1020308
18:00+11з2382100 0.0 1020113
21:00+10зюз237896 0.0 102144
22 апреля, чт
чт2200:00+9з338480 0.0 102128
03:00+9сз1186100 0.0 102110
06:00+9с1187100 0.0 102213
09:00+12ююз1077100 0.0 1023342
12:00+12юз3381100 0.4 1024334
15:00+14ююз5472100 0.5 1023637
18:00+13юз3476100 0.0 1023251
21:00+9юз228967 0.0 102427
23 апреля, пт
пт2300:00+9юз2287100 0.0 102316
03:00+8юз1185100 0.0 102310
06:00+8зюз22841 0.0 102326
09:00+14зюз21635 0.0 1023579
12:00+17зсз225124 0.6 10221494
15:00+18з334624 1.1 10211954
18:00+17зсз23565 0.0 102168
21:00+12ссв116424 0.0 102110